Regional Weather Roundup
Issued by NWS

Current Version | Previous Version | Text Only | Print | Product List | Glossary On
Versions: 1 2 3 4 5 6 7 8 9 10 11 12 13 14 15 16 17 18 19 20 21 22 23 24 25 26 27 28 29 30 31 32 33 34 35 36 37 38 39 40 41 42 43 44 45 46 47 48 49 50
000
ASCA44 KEWX 251820
RWRMX

LATIN AMERICA AND CARIBBEAN REGIONAL WEATHER ROUNDUP
NATIONAL WEATHER SERVICE AUSTIN/SAN ANTONIO TX
100 PM CDT MON MAY 25 2015

NOTE: "FAIR" INDICATED FEW OR NO CLOUDS BELOW 12,000 FEET WITH NO
SIGNIFICANT WEATHER AND/OR OBSTRUCTIONS TO VISIBILITY.

BAJA CALIFORNIA

CITY           SKY/WX    TMP DP  RH WIND       PRES   REMARKS
LORETO         SUNNY     77  64  65 NE12      29.90
LA PAZ         SUNNY     86  25  10 W3        29.94F
MEXICALI       SUNNY     82  52  34 S6        29.88S
S.J. DEL CABO  SUNNY     88  55  33 SE12      29.92S
TIJUANA        CLOUDY    61  54  77 NW5       30.04S

NORTHWESTERN MEXICO

CITY           SKY/WX    TMP DP  RH WIND       PRES   REMARKS
CULIACAN       SUNNY     93  59  31 S7        29.93F HX  92
DURANGO        SUNNY     75  32  20 SW10      30.20F
GUAYMAS        SUNNY     81  57  44 SW9       29.89S
HERMOSILLO     SUNNY     84  37  18 SE7       29.97S
CD. JUAREZ     SUNNY     77  45  31 W18       29.96S
LOS MOCHIS     SUNNY     86  28  12 SE7       29.93F
OBREGON        SUNNY     86  36  16 SE2       29.91F

NORTHEASTERN MEXICO

CITY           SKY/WX    TMP DP  RH WIND       PRES   REMARKS
CHIHUAHUA      SUNNY     75  18  11 S16       30.05F
MATAMOROS      PTSUNNY   88  77  70 SE17      29.88S HX 100
MONCLOVA         N/A    N/A N/A N/A MISG        N/A
MONTERREY      MOSUNNY   82  68  61 SE8       29.85S
NUEVO LAREDO   PTSUNNY   86  73  66 S9        29.84S HX  93
PIEDRAS NEGRAS PTSUNNY   86  73  66 SE7       29.85S HX  93
REYNOSA        PTSUNNY   86  75  70 SE12G23   29.83F HX  95
SALTILLO       MOSUNNY   86  57  37 SE14      30.11F
TORREON        SUNNY     86  39  19 CALM      30.04F
CD. VICTORIA   SUNNY     88  70  55 SW14      29.84F HX  92

WESTERN MEXICO

CITY           SKY/WX    TMP DP  RH WIND       PRES   REMARKS
AGUASCALIENTES MOSUNNY   75  37  25 S12       30.25F
COLIMA         MOSUNNY   86  66  51 SW9       29.99F
DEL BAJIO      PTSUNNY   77  54  44 W8        30.29F
GUADALAJARA    PTSUNNY   79  52  38 N7        30.18F
MANZANILLO     SUNNY     88  77  70 SW14      29.89S HX 100
MAZATLAN       MOSUNNY   88  59  37 SW5       29.89F
P. VALLARTA    PTSUNNY   86  75  70 W7        29.89F HX  95
URUAPAN        PTSUNNY   77  64  65 S8        30.18F
ZACATECAS      SUNNY     77  39  25 SW17      30.28S

CENTRAL MEXICO

CITY           SKY/WX    TMP DP  RH WIND       PRES   REMARKS
CUERNAVACA     MOSUNNY   82  52  34 CALM      30.09F
MEXICO CITY    MOSUNNY   73  48  40 NE3       30.31F
MORELIA        MOSUNNY   73  59  60 VRB3      30.24F
POZA RICA      MOSUNNY   91  73  55 CALM      29.87F HX 100
PUEBLA         MOSUNNY   72  50  46 SE5       30.30F
QUERETARO      MOSUNNY   73  55  53 W6        30.30F
S. LUIS POTOSI MOSUNNY   77  45  31 SW7       30.21F
TAMPICO        MOSUNNY   88  75  66 SE15      29.87F HX  97
TOLUCA         MOSUNNY   68  45  42 W3        30.43F

SOUTHERN MEXICO

CITY           SKY/WX    TMP DP  RH WIND       PRES   REMARKS
ACAPULCO       SUNNY     90  75  62 SW10      29.85F HX 100
B. DE HUATULCO MOSUNNY   88  81  79 SW12      29.90S HX 105
OAXACA         PTSUNNY   79  55  44 CALM      30.17F
P. ESCONDIDO   MOSUNNY   88  77  70 W13       29.96F HX 100
VERACRUZ       PTSUNNY   90  68  48 SE9       29.86F HX  93
ZIHUATANEJO    MOSUNNY   91  75  59 SW12      29.87F HX 102

YUCATAN PENINSULA

CITY           SKY/WX    TMP DP  RH WIND       PRES   REMARKS
CAMPECHE       MOSUNNY   93  66  40 E17G29    29.88F HX  96
CANCUN         MOSUNNY   88  75  66 SE14      30.03S HX  97
CHETUMAL       MOSUNNY   88  77  70 SE17      29.98F HX 100
CD. DEL CARMEN MOSUNNY   91  73  55 SE12      29.89F HX 100
COZUMEL        PTSUNNY   84  73  70 SE14      30.02F HX  91
MERIDA         MOSUNNY   97  64  34 SE20      29.94F HX  99
MINATITLAN     PTSUNNY   88  68  51 CALM      29.83F HX  91
TAPACHULA      MOSUNNY   93  77  59 CALM      29.88F HX 107
TUX. GUTIERREZ MOSUNNY   84  68  58 CALM      29.94F
VILLAHERMOSA   MOSUNNY   91  72  52 E8        29.89F HX  98

CENTRAL AMERICA

CITY           SKY/WX    TMP DP  RH WIND       PRES   REMARKS
BELIZE CITY    PTSUNNY   86  75  70 E10       29.98F HX  95
MANAGUA        PTCLDY    88  70  55 E18       29.86S HX  92

CARIBBEAN

CITY           SKY/WX    TMP DP  RH WIND       PRES   REMARKS
ARUBA          MOSUNNY   90  75  62 E21       29.89F HX 100
CURACAO        MOSUNNY   86  72  62 E15       29.94F HX  92
KINGSTON       MOSUNNY   86  75  70 SE26      29.97S HX  95
NASSAU         PTSUNNY   88  73  62 E12       30.17F HX  96
SAN JUAN       MOSUNNY   86  75  70 NE17      30.04F HX  95
SANTO DOMINGO  PTSUNNY   82  70  65 SE7       30.00S
ST. CROIX      MOSUNNY   88  72  58 E15       30.04  HX  94
ST. KITTS      MOSUNNY   88  70  55 E13       30.00F HX  92
ST. MAARTEN    MOSUNNY   86  70  58 SE10      30.03  HX  90
ST. THOMAS     CLOUDY    86  72  62 E13       30.03  HX  92

$$



USA.gov is the U.S. government's official web portal to all federal, state and local government web resources and services.